Change the Weather History Date:

Tuesday, November 12, 2013

  Actual Average Record
Temperature  
Mean Temperature 26 °F 44 °F  
Max Temperature 33 °F 53 °F 74 °F (2010)
Min Temperature 19 °F 34 °F 14 °F (1996)
Degree Days  
Heating Degree Days 39 22  
Month to date heating degree days 262 230  
Since 1 July heating degree days 654 691  
Cooling Degree Days 0 0  
Month to date cooling degree days 0 0  
Year to date cooling degree days 1067 944  
Moisture  
Dew Point 18 °F    
Average Humidity 72    
Maximum Humidity 84    
Minimum Humidity 59    
Precipitation  
Precipitation 0.00 in 0.12 in 0.45 in (2007)
Month to date precipitation 0.44 1.37  
Year to date precipitation 29.20 35.07  
Sea Level Pressure  
Sea Level Pressure 30.67 in    
Wind  
Wind Speed 12 mph (NW)    
Max Wind Speed 23 mph    
Max Gust Speed 29 mph    
Visibility 10 miles    
Events      
T = Trace of Precipitation, MM = Missing Value Source: NWS Daily Summary

Daily Weather History Graph

Daily Weather History Graph

Search for Another Location

Airport or City:

Trip Planner

Search our weather history database for the weather conditions in past years. The results will help you decide how hot, cold, wet, or windy it might be!

Date:

Astronomy

Nov. 12, 2013 Rise Set
Actual Time 6:35 AM CST 4:38 PM CST
Civil Twilight 6:06 AM CST 5:07 PM CST
Nautical Twilight 5:33 AM CST 5:40 PM CST
Astronomical Twilight 5:01 AM CST 6:12 PM CST
Moon 1:53 PM CST (11/12) 1:24 AM CST (11/12)
Length of Visible Light 11h 01m
Length of Day
10h 03m
Waxing Gibbous, 76% of the Moon is Illuminated
Nov 12
Waxing Gibbous
Nov 17
Full
Nov 25
Last Quarter
Dec 2
New
Dec 9
First Quarter

Hourly Weather History & Observations

Time (CST) Temp. Windchill Dew Point Humidity Pressure Visibility Wind Dir Wind Speed Gust Speed Precip Events Conditions
12:53 AM 27.0 °F 13.2 °F 19.9 °F 75% 30.49 in 10.0 mi North 20.7 mph 28.8 mph N/A   Clear
1:53 AM 25.0 °F 10.6 °F 18.0 °F 75% 30.51 in 10.0 mi North 20.7 mph 25.3 mph N/A   Clear
2:53 AM 24.1 °F 10.6 °F 16.0 °F 71% 30.54 in 10.0 mi NNW 17.3 mph - N/A   Clear
3:53 AM 23.0 °F 9.2 °F 16.0 °F 74% 30.57 in 10.0 mi North 17.3 mph - N/A   Clear
4:53 AM 23.0 °F 10.1 °F 15.1 °F 72% 30.59 in 10.0 mi NNW 15.0 mph - N/A   Clear
5:53 AM 21.9 °F 8.7 °F 15.1 °F 75% 30.63 in 10.0 mi NNW 15.0 mph - N/A   Clear
6:53 AM 21.9 °F 8.2 °F 15.1 °F 75% 30.68 in 10.0 mi NNW 16.1 mph - N/A   Clear
7:53 AM 23.0 °F 10.1 °F 16.0 °F 74% 30.69 in 10.0 mi North 15.0 mph - N/A   Clear
8:53 AM 25.0 °F 12.6 °F 18.0 °F 75% 30.71 in 10.0 mi NNW 15.0 mph - N/A   Clear
9:53 AM 27.0 °F 15.2 °F 19.9 °F 75% 30.73 in 10.0 mi NNW 15.0 mph - N/A   Mostly Cloudy
10:53 AM 28.0 °F 17.0 °F 19.9 °F 72% 30.74 in 10.0 mi NNW 13.8 mph - N/A   Scattered Clouds
11:53 AM 30.0 °F 21.1 °F 23.0 °F 75% 30.72 in 10.0 mi North 10.4 mph - N/A   Scattered Clouds
12:53 PM 32.0 °F 22.5 °F 24.1 °F 73% 30.71 in 10.0 mi NW 12.7 mph - N/A   Scattered Clouds
1:53 PM 32.0 °F 23.0 °F 23.0 °F 69% 30.71 in 10.0 mi NNW 11.5 mph - N/A   Scattered Clouds
2:53 PM 32.0 °F 23.0 °F 19.9 °F 61% 30.71 in 10.0 mi North 11.5 mph - N/A   Scattered Clouds
3:53 PM 30.9 °F 21.2 °F 19.9 °F 64% 30.72 in 10.0 mi NNW 12.7 mph - N/A   Partly Cloudy
4:53 PM 27.0 °F 20.5 °F 19.9 °F 75% 30.70 in 10.0 mi NW 5.8 mph - N/A   Partly Cloudy
5:53 PM 24.1 °F 18.2 °F 19.0 °F 81% 30.71 in 10.0 mi NW 4.6 mph - N/A   Clear
6:53 PM 23.0 °F 14.7 °F 18.0 °F 81% 30.71 in 10.0 mi NW 6.9 mph - N/A   Clear
7:53 PM 23.0 °F 17.0 °F 18.0 °F 81% 30.70 in 10.0 mi West 4.6 mph - N/A   Clear
8:53 PM 21.9 °F 17.2 °F 18.0 °F 85% 30.70 in 10.0 mi West 3.5 mph - N/A   Clear
9:53 PM 21.0 °F 14.6 °F 17.1 °F 85% 30.69 in 10.0 mi West 4.6 mph - N/A   Clear
10:53 PM 19.9 °F 11.1 °F 16.0 °F 85% 30.69 in 10.0 mi West 6.9 mph - N/A   Clear
11:53 PM 19.9 °F 13.4 °F 16.0 °F 85% 30.69 in 10.0 mi West 4.6 mph - N/A   Clear